Carlsbad, NM

3:53 AM MST on February 22, 2017 (GMT -0700)
Cavern City

Weather History for KCNM - October, 2012

Change the Weather History Date:

Wednesday, October 3, 2012

  Actual Average Record
Temperature  
Mean Temperature 72 °F -  
Max Temperature 93 °F 82 °F 100 °F (2000)
Min Temperature 52 °F 54 °F 40 °F (1961)
Cooling Degree Days 8    
Growing Degree Days 22 (Base 50)    
Moisture  
Dew Point 46 °F    
Average Humidity 50    
Maximum Humidity 93    
Minimum Humidity 11    
Precipitation  
Precipitation 0.00 in - - ()
Sea Level Pressure  
Sea Level Pressure 29.80 in    
Wind  
Wind Speed 6 mph (SW)    
Max Wind Speed 21 mph    
Max Gust Speed 24 mph    
Visibility 10 miles    
Events      
Averages and records for this station are not official NWS values.
T = Trace of Precipitation, MM = Missing Value Source: NWS Daily Summary

Daily Weather History Graph

Daily Weather History Graph

Search for Another Location

Airport or City:

Trip Planner

Search our weather history database for the weather conditions in past years. The results will help you decide how hot, cold, wet, or windy it might be!

Date:

Astronomy

Oct. 03, 2012 Rise Set
Actual Time 6:52 AM MDT 6:38 PM MDT
Civil Twilight 6:28 AM MDT 7:02 PM MDT
Nautical Twilight 5:59 AM MDT 7:31 PM MDT
Astronomical Twilight 5:31 AM MDT 7:59 PM MDT
Moon 8:46 PM MDT (10/3) 10:04 AM MDT (10/3)
Length of Visible Light 12h 34m
Length of Day
11h 45m
Waning Gibbous, 88% of the Moon is Illuminated
Oct 3
Waning Gibbous
Oct 8
Last Quarter
Oct 15
New
Oct 21
First Quarter
Oct 29
Full

Hourly Weather History & Observations

Time (MDT) Temp. Heat Index Dew Point Humidity Pressure Visibility Wind Dir Wind Speed Gust Speed Precip Events Conditions
12:53 AM 62.1 °F - 53.1 °F 72% 29.80 in 10.0 mi SSE 8.1 mph - N/A   Clear
1:53 AM 61.0 °F - 53.1 °F 75% 29.79 in 10.0 mi SSE 6.9 mph - N/A   Clear
2:53 AM 55.9 °F - 52.0 °F 87% 29.78 in 10.0 mi SSW 3.5 mph - N/A   Clear
3:53 AM 55.0 °F - 52.0 °F 89% 29.78 in 10.0 mi South 3.5 mph - N/A   Clear
4:53 AM 54.0 °F - 51.1 °F 90% 29.79 in 10.0 mi Calm Calm - N/A   Clear
5:53 AM 54.0 °F - 51.1 °F 90% 29.79 in 10.0 mi Calm Calm - N/A   Clear
6:53 AM 52.0 °F - 50.0 °F 93% 29.81 in 10.0 mi Calm Calm - N/A   Clear
7:53 AM 55.9 °F - 53.1 °F 90% 29.82 in 10.0 mi Calm Calm - N/A   Clear
8:53 AM 61.0 °F - 54.0 °F 78% 29.83 in 10.0 mi Calm Calm - N/A   Clear
9:53 AM 64.9 °F - 54.0 °F 68% 29.84 in 10.0 mi Calm Calm - N/A   Clear
10:53 AM 69.8 °F - 55.4 °F 60% 29.96 in 10.0 mi Calm Calm - N/A   Clear
11:53 AM 75.9 °F - 54.0 °F 46% 29.81 in 10.0 mi SE 3.5 mph - N/A   Clear
12:53 PM 84.0 °F 83.0 °F 55.9 °F 38% 29.77 in 10.0 mi SSE 6.9 mph - N/A   Clear
1:53 PM 89.1 °F - 52.0 °F 28% 29.73 in 10.0 mi ESE 6.9 mph - N/A   Clear
2:53 PM 91.0 °F - 37.9 °F 15% 29.73 in 10.0 mi Calm Calm - N/A   Clear
3:53 PM 93.0 °F - 30.9 °F 11% 29.71 in 10.0 mi West 20.7 mph - N/A   Clear
4:53 PM 91.9 °F - 30.9 °F 11% 29.73 in 10.0 mi WSW 15.0 mph 24.2 mph N/A   Clear
5:53 PM 89.1 °F - 28.0 °F 11% 29.74 in 10.0 mi West 19.6 mph - N/A   Clear
6:53 PM 79.0 °F - 39.0 °F 24% 29.78 in 10.0 mi WSW 11.5 mph - N/A   Clear
7:53 PM 73.9 °F - 41.0 °F 30% 29.80 in 10.0 mi WSW 12.7 mph - N/A   Clear
8:53 PM 73.4 °F - 39.2 °F 29% 29.94 in 10.0 mi WSW 12.7 mph - N/A   Clear
9:53 PM 72.0 °F - 39.0 °F 30% 29.81 in 10.0 mi West 10.4 mph - N/A   Clear
10:53 PM 75.0 °F - 36.0 °F 24% 29.80 in 10.0 mi WSW 15.0 mph - N/A   Clear
11:53 PM 75.9 °F - 34.0 °F 22% 29.80 in 10.0 mi WSW 13.8 mph - N/A   Clear